Theta_e
311 309 309 309 310 311 310 308 307 308 308 309 309 308 303 301 300 302 306 306 306 306 305 306 306 306 306 306 306 307 307 307 308 309 308 308 307 307 308 308 308 308 308
311 310 310 310 310 311 310 308 308 308 309 309 308 308 305 303 302 301 305 306 307 306 304 305 306 304 305 306 306 306 307 307 308 309 308 307 306 306 306 306 307 307 306
311 311 310 310 310 310 310 308 308 308 309 309 307 307 307 306 303 302 302 305 306 305 303 304 305 303 305 306 306 306 307 308 308 308 307 306 306 306 305 304 304 303 304
312 311 310 310 309 309 310 309 308 309 310 309 308 308 308 307 303 302 302 305 306 305 303 302 303 303 305 306 306 305 307 308 309 308 307 306 306 306 306 306 306 303 303
312 311 310 310 309 309 309 309 309 309 311 310 310 309 308 307 304 302 303 304 304 306 304 303 301 303 305 306 306 306 306 307 307 307 307 306 306 306 305 306 306 306 305
312 312 310 310 309 309 309 309 309 310 311 310 310 309 309 308 305 302 302 304 303 306 305 305 303 302 304 305 306 306 305 306 307 307 307 307 307 306 305 306 306 306 308
312 311 310 309 309 309 310 309 309 310 311 310 310 310 309 307 305 302 302 302 302 305 306 305 304 302 302 303 303 303 305 306 306 306 306 307 306 306 305 305 307 307 306
312 312 310 309 309 310 310 310 310 312 311 310 309 308 308 307 305 303 302 301 301 304 305 304 303 303 304 303 302 301 303 305 305 306 306 307 307 306 305 306 307 307 306
312 312 310 310 310 310 310 309 311 312 311 310 309 308 307 307 305 303 301 301 301 302 301 303 303 303 303 304 303 304 304 305 305 306 306 307 306 306 307 307 307 307 307
312 312 310 310 311 309 309 309 312 310 310 310 308 308 307 306 304 302 301 300 300 301 300 301 304 304 303 302 304 304 304 305 305 305 306 307 308 306 306 306 307 308 308
312 312 310 311 310 310 309 310 309 309 308 309 307 306 306 305 303 300 299 299 299 299 300 303 303 304 303 302 303 304 304 304 305 305 306 306 306 307 306 306 307 307 308
312 312 312 311 310 309 309 309 309 309 308 305 306 305 304 303 302 299 299 300 300 300 302 303 303 303 304 303 302 302 303 304 304 305 305 305 304 304 304 305 305 305 305
312 312 312 311 310 309 310 309 309 308 307 305 305 304 303 302 300 299 300 300 300 301 302 302 302 302 301 302 302 302 302 302 303 303 303 304 305 305 304 304 304 304 305
312 312 311 310 309 309 309 309 309 308 307 307 305 304 303 301 300 300 299 299 299 300 300 300 300 300 300 301 301 302 301 301 301 302 302 303 304 305 305 304 304 305 306
311 310 310 309 309 309 309 308 308 309 309 308 307 305 304 301 300 300 299 300 300 300 300 301 301 301 300 301 301 301 302 301 301 300 301 302 303 304 304 305 305 305 305
309 309 310 309 309 309 308 308 308 308 308 308 308 306 305 303 301 300 300 301 301 301 300 300 300 300 300 300 300 299 299 299 300 300 299 299 302 302 303 303 304 305 305
310 309 309 309 309 309 309 309 308 307 307 306 307 307 305 304 302 301 301 301 301 301 300 299 299 300 299 299 299 299 297 297 296 297 299 300 302 302 302 303 303 304 304
310 309 310 310 309 308 308 308 307 307 306 306 306 306 305 304 302 302 301 301 301 300 300 299 298 299 298 298 299 299 298 297 295 296 298 299 298 300 301 300 300 301 303
309 310 310 308 308 308 308 307 307 307 306 306 306 306 306 305 304 302 302 301 300 299 298 298 298 298 297 297 298 298 298 297 295 294 293 293 294 296 298 300 300 299 300
310 310 309 308 307 309 308 308 307 308 308 306 306 305 305 304 304 302 301 300 299 298 297 298 298 297 297 297 298 297 298 297 296 293 292 291 291 293 296 298 298 298 298
312 311 310 308 307 308 308 308 309 309 308 305 305 305 303 302 301 300 299 298 298 297 297 297 297 297 297 297 297 297 297 295 293 292 292 290 289 291 293 295 296 296 298
312 311 311 310 310 310 310 310 309 308 307 305 303 302 302 301 300 299 298 298 297 297 296 296 296 297 297 297 296 295 294 293 292 291 290 289 288 288 291 293 294 295 297
312 311 310 310 311 310 310 309 309 308 307 305 302 302 301 300 299 298 298 297 296 296 296 296 296 296 296 295 293 292 291 291 290 288 287 287 287 287 288 291 292 293 295
310 310 310 310 310 308 307 309 309 307 305 304 302 302 300 299 299 298 298 297 296 296 296 296 296 295 293 292 292 291 290 288 287 287 287 287 287 287 287 289 291 292 294
312 310 307 307 308 308 308 309 307 305 305 304 301 301 300 299 298 298 297 297 296 297 296 296 294 293 292 291 290 288 288 288 287 287 287 287 288 288 288 288 291 293 295
307 307 307 308 309 309 308 308 306 303 301 301 301 299 300 299 298 297 297 297 296 295 294 293 292 291 290 288 287 287 287 287 287 287 287 288 289 290 290 291 292 293 294
Wind_Speed
19 15 13 11 8 6 3 2 2 5 7 9 9 9 10 15 18 18 15 14 14 14 14 14 14 14 16 17 18 15 14 10 5 6 2 5 7 9 11 14 12 17 21
19 15 13 10 9 6 3 3 4 6 7 10 9 8 9 13 16 19 18 16 15 14 15 15 14 17 17 18 19 20 17 11 10 7 1 5 5 8 10 12 14 13 15
19 15 13 11 9 6 4 5 5 7 8 10 9 9 10 11 16 19 18 16 14 12 15 15 14 17 19 20 18 21 20 9 7 8 0 3 6 7 8 12 15 14 13
19 16 14 12 8 6 6 6 7 8 10 11 10 10 10 10 14 19 19 15 14 12 14 15 12 14 17 17 16 19 20 11 2 4 3 1 2 3 5 7 10 14 17
20 17 14 10 8 7 7 7 8 9 11 11 12 12 11 9 11 17 18 14 16 12 12 15 13 12 13 12 12 15 16 13 9 6 3 2 3 4 4 6 6 7 8
21 19 13 10 9 8 7 7 8 9 9 12 11 12 11 8 9 14 16 15 17 13 12 14 14 12 14 13 10 10 11 11 9 5 4 3 4 4 3 3 7 5 2
23 18 12 12 11 9 8 9 9 8 10 11 10 10 9 7 8 13 14 16 16 13 10 13 15 13 13 14 11 10 10 8 7 6 4 3 3 3 1 2 4 4 2
24 17 15 14 12 9 9 10 8 8 9 10 9 8 8 7 7 11 16 16 14 12 9 12 13 15 15 15 15 13 10 8 9 6 5 4 4 1 2 4 6 4 3
23 19 17 15 13 11 10 8 8 9 8 8 10 8 8 7 7 10 15 14 14 11 12 11 10 11 15 17 13 14 13 10 9 6 5 4 3 3 4 5 6 2 2
24 20 17 15 13 9 10 9 8 7 8 8 8 7 8 7 7 10 14 13 14 13 14 13 10 8 12 16 13 13 14 14 13 8 5 4 4 2 3 6 7 4 4
24 20 15 14 11 8 6 8 7 6 6 5 6 5 5 7 7 11 11 12 12 13 13 12 10 9 8 13 13 13 12 14 13 9 5 5 4 3 3 5 5 5 2
22 18 15 14 9 6 7 6 6 6 4 4 3 3 4 4 8 9 9 11 11 11 11 11 11 10 9 10 13 13 14 12 11 9 7 7 6 6 6 5 4 4 4
17 15 14 12 7 6 6 7 6 5 5 2 3 3 3 3 5 7 9 11 10 11 10 9 10 10 10 10 12 11 12 16 16 13 10 9 9 8 8 7 5 5 5
16 14 13 9 6 5 6 9 9 9 8 7 8 7 5 3 2 5 7 9 11 11 9 7 7 9 10 10 13 11 9 13 16 16 12 11 10 7 7 6 6 5 6
12 11 8 5 5 5 6 8 10 10 10 8 11 10 8 5 3 1 5 11 13 11 11 9 8 10 12 14 15 13 9 10 11 16 20 15 13 10 8 5 6 6 4
11 9 7 6 6 6 8 8 6 6 6 10 11 8 9 7 6 4 6 9 11 11 8 8 10 11 11 12 13 14 12 14 13 12 14 20 16 12 10 7 6 5 6
11 8 8 7 7 7 9 7 7 4 6 7 7 10 10 9 7 6 6 8 9 9 8 10 10 12 12 11 11 7 13 13 14 14 14 13 15 11 13 10 7 7 7
7 6 6 7 6 5 5 3 5 5 8 8 7 8 11 11 8 9 8 9 10 9 10 11 12 14 13 12 12 11 11 14 15 14 13 12 16 16 9 13 15 11 9
8 6 6 6 6 6 5 5 5 5 7 8 7 6 6 8 10 11 10 7 5 8 11 12 11 12 12 12 10 12 10 9 11 13 14 15 15 14 15 9 9 13 13
7 5 5 5 4 3 5 7 5 7 9 8 7 4 1 4 5 5 4 4 5 8 11 12 12 12 12 13 13 13 10 9 11 14 17 18 16 12 10 10 8 9 11
8 8 7 7 5 7 7 7 8 10 10 6 3 1 1 1 3 3 4 4 5 9 12 12 14 14 13 14 11 10 8 9 13 16 19 19 15 11 10 10 10 9 8
7 9 6 8 7 7 7 9 11 8 4 4 3 6 2 2 3 3 5 5 8 11 12 12 13 12 12 7 8 8 7 11 16 20 21 20 16 12 10 9 9 8 8
5 6 7 7 7 8 10 9 8 4 8 4 7 6 1 3 1 1 1 6 9 11 11 11 12 11 9 8 10 11 14 18 20 21 20 18 15 12 10 9 8 9 9
3 5 8 10 11 10 10 10 7 7 5 9 11 10 3 2 3 5 7 8 10 11 12 13 10 11 9 10 12 16 19 19 18 18 17 15 14 12 11 10 9 9 10
7 8 10 10 12 14 11 10 9 8 8 12 11 5 1 3 6 7 9 11 13 14 11 9 7 8 10 14 17 17 16 16 15 15 15 14 13 12 11 10 8 8 10
8 9 11 13 10 7 9 12 9 4 3 2 2 2 5 4 7 8 10 10 11 9 8 8 9 10 14 15 16 16 16 15 15 14 14 12 11 11 11 10 10 10 11
Wind_Direction
191 182 193 190 188 193 197 291 296 304 321 329 325 331 347 356 359 353 350 344 340 343 352 347 350 346 343 350 350 342 329 303 267 285 324 20 33 33 36 51 59 61 58
188 184 195 193 194 193 205 261 274 300 318 330 323 319 330 349 354 357 348 346 346 342 349 346 349 349 347 351 353 346 329 315 269 289 314 18 39 48 41 46 46 48 52
188 192 203 201 206 199 223 252 274 299 308 323 323 314 320 333 347 352 348 343 344 343 349 349 341 347 347 347 355 353 343 335 241 249 221 9 30 34 52 58 52 48 51
193 198 207 204 202 207 228 254 274 297 306 313 318 314 311 320 341 349 349 347 345 348 354 353 344 349 347 345 352 1 8 22 107 156 100 25 13 23 35 33 44 44 45
193 204 213 207 205 216 237 263 279 294 307 304 307 311 310 314 333 348 350 349 351 341 354 360 354 350 352 352 345 356 12 26 50 42 24 338 349 352 350 0 7 360 20
196 209 212 211 210 223 240 257 278 295 302 303 302 307 313 309 324 348 352 339 342 337 345 353 356 354 4 10 10 4 9 18 18 17 5 354 343 328 314 340 4 7 357
199 209 211 214 213 231 248 259 274 291 298 307 310 308 308 309 327 344 347 345 345 346 336 345 358 360 356 358 3 356 2 6 12 360 351 341 323 320 325 332 1 348 341
200 207 214 217 223 230 242 266 279 275 289 305 310 309 309 315 322 337 348 343 340 349 348 346 353 1 4 354 347 351 355 357 355 348 343 344 345 274 261 312 325 318 323
198 210 217 219 228 236 245 270 271 274 281 298 304 311 316 314 317 327 333 336 336 334 351 347 342 354 4 358 354 357 356 359 353 339 315 336 329 339 323 325 351 287 308
200 212 216 218 227 235 257 268 261 276 291 291 313 317 322 318 322 326 334 337 336 332 334 343 343 339 359 5 358 355 354 353 352 349 344 297 337 281 315 310 316 286 276
204 214 221 225 243 239 263 266 280 271 294 298 317 329 324 326 332 336 338 339 337 335 338 346 2 349 353 4 6 1 346 343 342 340 324 335 339 298 339 328 329 341 317
208 220 233 232 228 240 253 255 278 273 278 308 317 329 330 323 339 347 351 350 346 342 348 357 356 360 346 353 2 3 11 352 348 343 335 330 325 304 299 290 316 331 306
209 228 233 206 223 236 242 253 253 248 262 272 265 285 302 292 346 2 1 359 358 354 349 344 355 358 358 348 346 348 2 9 2 353 330 325 321 300 300 286 270 288 294
218 221 198 209 200 215 236 247 252 251 253 256 252 258 249 267 359 16 356 0 358 353 357 358 350 349 354 356 359 353 5 11 8 2 351 338 333 321 310 285 277 273 290
177 172 174 191 211 229 247 254 262 264 265 273 277 256 234 241 236 332 339 350 344 347 337 344 355 358 351 348 351 3 355 354 6 359 7 352 345 323 318 284 292 282 258
170 176 194 204 210 234 260 278 268 278 261 260 269 277 246 243 242 255 297 336 341 338 331 345 342 347 354 356 349 348 1 358 350 350 355 351 347 349 320 307 288 282 273
180 189 195 216 234 268 279 263 302 287 302 303 269 263 243 250 237 255 292 323 345 342 344 339 335 339 341 337 342 4 352 1 1 358 352 352 347 351 1 338 301 286 285
188 194 215 227 257 271 268 275 303 308 303 320 314 280 243 238 240 260 283 310 335 342 344 336 337 338 340 339 335 326 340 343 354 3 360 356 358 356 17 17 11 5 347
189 199 220 237 276 256 263 280 295 303 290 295 299 306 251 238 253 270 294 319 338 333 337 332 332 336 333 332 334 324 315 319 345 354 357 350 340 341 341 347 346 346 349
206 216 217 241 263 266 273 298 300 306 293 283 297 313 222 251 280 288 310 335 339 338 333 331 335 331 331 328 325 325 315 316 334 343 342 339 333 324 311 311 326 328 326
214 217 232 249 268 295 305 307 300 292 294 292 298 154 157 326 297 320 336 345 348 341 336 340 336 329 327 329 338 338 326 333 335 334 333 332 329 319 309 302 301 306 307
211 223 257 257 275 293 286 281 306 304 298 287 172 155 132 327 325 355 357 358 347 336 339 339 340 336 328 336 342 337 333 327 326 327 325 323 320 313 305 297 298 302 302
219 224 252 268 282 285 279 293 298 300 274 207 179 173 213 301 292 332 292 327 346 334 335 332 331 340 332 333 340 341 336 331 327 324 321 319 316 310 306 297 296 295 298
226 250 258 262 267 284 285 270 266 259 237 194 197 203 228 307 280 292 314 331 332 325 320 321 326 335 333 338 337 334 331 329 328 327 325 321 319 314 305 294 289 286 296
260 259 262 271 277 278 288 278 252 227 228 225 205 188 25 355 327 327 323 319 320 324 326 332 331 340 338 336 331 332 334 334 336 334 330 325 320 317 308 299 294 297 296
260 270 294 304 301 288 284 275 260 274 356 350 285 48 45 339 320 332 332 337 345 346 341 341 341 339 335 337 341 341 342 343 344 343 335 327 323 322 319 309 298 301 292